Time,TemperatureF,DewpointF,PressureIn,WindDirection,WindDirectionDegrees,WindSpeedMPH,WindSpeedGustMPH,Humidity,HourlyPrecipIn,Conditions,Clouds,dailyrainin,SoftwareType,DateUTC
2013-04-19 00:16:00,24.7,14.0,30.15,NNW,348,3.0,5.0,63,0.00,,,0.00,weatherlink.com 1.10,2013-04-19 08:16:00,
2013-04-19 00:46:00,25.1,14.0,30.15,NNE,15,3.0,5.0,62,0.00,,,0.00,weatherlink.com 1.10,2013-04-19 08:46:00,
2013-04-19 01:01:00,25.2,14.0,30.15,North,350,5.0,6.0,62,0.00,,,0.00,weatherlink.com 1.10,2013-04-19 09:01:00,
2013-04-19 01:16:00,24.4,13.0,30.15,North,360,3.0,5.0,63,0.00,,,0.00,weatherlink.com 1.10,2013-04-19 09:16:00,
2013-04-19 01:31:00,24.6,14.0,30.15,North,5,4.0,7.0,63,0.00,,,0.00,weatherlink.com 1.10,2013-04-19 09:31:00,
2013-04-19 01:46:00,25.3,15.0,30.16,North,360,3.0,8.0,64,0.00,,,0.00,weatherlink.com 1.10,2013-04-19 09:46:00,
2013-04-19 02:01:00,25.6,15.0,30.16,North,9,4.0,8.0,64,0.00,,,0.00,weatherlink.com 1.10,2013-04-19 10:01:00,
2013-04-19 02:16:00,25.4,14.0,30.16,North,5,3.0,7.0,63,0.00,,,0.00,weatherlink.com 1.10,2013-04-19 10:16:00,
2013-04-19 02:31:00,24.3,14.0,30.16,North,355,5.0,6.0,64,0.00,,,0.00,weatherlink.com 1.10,2013-04-19 10:31:00,
2013-04-19 02:46:00,24.0,14.0,30.16,NNW,342,5.0,6.0,66,0.00,,,0.00,weatherlink.com 1.10,2013-04-19 10:46:00,
2013-04-19 03:01:00,24.0,14.0,30.16,North,355,4.0,6.0,65,0.00,,,0.00,weatherlink.com 1.10,2013-04-19 11:01:00,
2013-04-19 03:16:00,24.5,13.0,30.16,NNE,20,2.0,6.0,63,0.00,,,0.00,weatherlink.com 1.10,2013-04-19 11:16:00,
2013-04-19 03:31:00,25.3,14.0,30.16,NNE,20,3.0,3.0,62,0.00,,,0.00,weatherlink.com 1.10,2013-04-19 11:31:00,
2013-04-19 03:46:00,23.9,13.0,30.16,NNE,20,2.0,4.0,64,0.00,,,0.00,weatherlink.com 1.10,2013-04-19 11:46:00,
2013-04-19 04:01:00,24.0,13.0,30.17,North,360,5.0,6.0,62,0.00,,,0.00,weatherlink.com 1.10,2013-04-19 12:01:00,
2013-04-19 04:16:00,22.8,13.0,30.16,North,350,5.0,7.0,65,0.00,,,0.00,weatherlink.com 1.10,2013-04-19 12:16:00,
2013-04-19 04:31:00,22.4,13.0,30.17,North,350,4.0,5.0,66,0.00,,,0.00,weatherlink.com 1.10,2013-04-19 12:31:00,
2013-04-19 04:46:00,23.1,13.0,30.16,North,10,2.0,5.0,65,0.00,,,0.00,weatherlink.com 1.10,2013-04-19 12:46:00,
2013-04-19 05:01:00,23.2,13.0,30.16,North,11,3.0,5.0,65,0.00,,,0.00,weatherlink.com 1.10,2013-04-19 13:01:00,
2013-04-19 05:16:00,22.9,12.0,30.16,North,10,4.0,5.0,64,0.00,,,0.00,weatherlink.com 1.10,2013-04-19 13:16:00,
2013-04-19 05:31:00,22.3,12.0,30.16,North,10,1.0,4.0,66,0.00,,,0.00,weatherlink.com 1.10,2013-04-19 13:31:00,
2013-04-19 05:46:00,23.3,13.0,30.17,NNE,31,2.0,5.0,66,0.00,,,0.00,weatherlink.com 1.10,2013-04-19 13:46:00,
2013-04-19 06:01:00,23.6,13.0,30.17,North,350,5.0,6.0,64,0.00,,,0.00,weatherlink.com 1.10,2013-04-19 14:01:00,
2013-04-19 06:16:00,22.9,12.0,30.17,North,350,0.0,3.0,64,0.00,,,0.00,weatherlink.com 1.10,2013-04-19 14:16:00,
2013-04-19 06:31:00,23.0,13.0,30.17,NNE,31,2.0,4.0,66,0.00,,,0.00,weatherlink.com 1.10,2013-04-19 14:31:00,
2013-04-19 07:01:00,23.5,13.0,30.18,NE,37,3.0,4.0,65,0.00,,,0.00,weatherlink.com 1.10,2013-04-19 15:01:00,
2013-04-19 07:16:00,22.6,12.0,30.18,North,355,4.0,6.0,64,0.00,,,0.00,weatherlink.com 1.10,2013-04-19 15:16:00,
2013-04-19 07:31:00,23.5,13.0,30.18,North,355,2.0,4.0,64,0.00,,,0.00,weatherlink.com 1.10,2013-04-19 15:31:00,
2013-04-19 07:46:00,24.7,13.0,30.18,North,355,2.0,3.0,62,0.00,,,0.00,weatherlink.com 1.10,2013-04-19 15:46:00,
2013-04-19 08:01:00,26.6,14.0,30.19,North,355,0.0,2.0,60,0.00,,,0.00,weatherlink.com 1.10,2013-04-19 16:01:00,
2013-04-19 08:16:00,27.5,14.0,30.19,North,355,0.0,2.0,58,0.00,,,0.00,weatherlink.com 1.10,2013-04-19 16:16:00,
2013-04-19 08:31:00,29.1,15.0,30.20,NE,36,0.0,6.0,56,0.00,,,0.00,weatherlink.com 1.10,2013-04-19 16:31:00,
2013-04-19 08:47:00,30.2,16.0,30.20,ENE,67,3.0,5.0,55,0.00,,,0.00,weatherlink.com 1.10,2013-04-19 16:47:00,
2013-04-19 09:02:00,31.0,16.0,30.21,NE,47,4.0,6.0,54,0.00,,,0.00,weatherlink.com 1.10,2013-04-19 17:02:00,
2013-04-19 09:17:00,31.3,16.0,30.20,North,5,2.0,6.0,53,0.00,,,0.00,weatherlink.com 1.10,2013-04-19 17:17:00,
2013-04-19 09:32:00,31.3,16.0,30.21,North,360,3.0,6.0,53,0.00,,,0.00,weatherlink.com 1.10,2013-04-19 17:32:00,
2013-04-19 09:47:00,32.2,17.0,30.21,North,5,0.0,7.0,53,0.00,,,0.00,weatherlink.com 1.10,2013-04-19 17:47:00,
2013-04-19 10:02:00,33.0,17.0,30.22,NE,48,2.0,7.0,53,0.00,,,0.00,weatherlink.com 1.10,2013-04-19 18:02:00,
2013-04-19 10:17:00,33.7,18.0,30.22,NE,47,3.0,6.0,52,0.00,,,0.00,weatherlink.com 1.10,2013-04-19 18:17:00,
2013-04-19 10:32:00,33.7,18.0,30.23,NNE,31,2.0,7.0,52,0.00,,,0.00,weatherlink.com 1.10,2013-04-19 18:32:00,
2013-04-19 10:47:00,33.9,18.0,30.23,NNE,20,1.0,8.0,52,0.00,,,0.00,weatherlink.com 1.10,2013-04-19 18:47:00,
2013-04-19 11:02:00,34.3,18.0,30.23,NE,34,5.0,8.0,51,0.00,,,0.00,weatherlink.com 1.10,2013-04-19 19:02:00,
2013-04-19 11:17:00,33.9,18.0,30.23,East,90,3.0,7.0,52,0.00,,,0.00,weatherlink.com 1.10,2013-04-19 19:17:00,
2013-04-19 11:32:00,34.5,18.0,30.24,NNE,24,3.0,10.0,51,0.00,,,0.00,weatherlink.com 1.10,2013-04-19 19:32:00,
2013-04-19 11:47:00,34.3,17.0,30.24,NE,34,6.0,10.0,50,0.00,,,0.00,weatherlink.com 1.10,2013-04-19 19:47:00,
2013-04-19 12:02:00,34.8,17.0,30.25,NNE,24,2.0,8.0,48,0.00,,,0.00,weatherlink.com 1.10,2013-04-19 20:02:00,
2013-04-19 12:17:00,35.3,16.0,30.25,NE,38,2.0,9.0,46,0.00,,,0.00,weatherlink.com 1.10,2013-04-19 20:17:00,
2013-04-19 12:32:00,35.7,19.0,30.26,East,90,2.0,8.0,50,0.00,,,0.00,weatherlink.com 1.10,2013-04-19 20:32:00,
2013-04-19 12:47:00,35.2,20.0,30.26,East,91,2.0,7.0,54,0.00,,,0.00,weatherlink.com 1.10,2013-04-19 20:47:00,
2013-04-19 13:02:00,35.8,17.0,30.27,NNE,17,3.0,8.0,47,0.00,,,0.00,weatherlink.com 1.10,2013-04-19 21:02:00,
2013-04-19 13:17:00,36.1,17.0,30.27,NE,48,1.0,7.0,46,0.00,,,0.00,weatherlink.com 1.10,2013-04-19 21:17:00,
2013-04-19 13:32:00,36.5,18.0,30.27,NNE,20,2.0,8.0,47,0.00,,,0.00,weatherlink.com 1.10,2013-04-19 21:32:00,
2013-04-19 13:47:00,35.7,18.0,30.27,NNW,344,5.0,8.0,48,0.00,,,0.00,weatherlink.com 1.10,2013-04-19 21:47:00,
2013-04-19 14:02:00,36.2,17.0,30.28,NNW,337,4.0,8.0,46,0.00,,,0.00,weatherlink.com 1.10,2013-04-19 22:02:00,
2013-04-19 14:32:00,37.2,18.0,30.27,ENE,71,1.0,5.0,46,0.00,,,0.00,weatherlink.com 1.10,2013-04-19 22:32:00,
2013-04-19 14:47:00,37.7,18.0,30.28,ESE,103,3.0,8.0,45,0.00,,,0.00,weatherlink.com 1.10,2013-04-19 22:47:00,
2013-04-19 15:02:00,37.5,18.0,30.28,NNE,20,5.0,7.0,45,0.00,,,0.00,weatherlink.com 1.10,2013-04-19 23:02:00,
2013-04-19 15:17:00,38.5,19.0,30.28,North,11,2.0,6.0,45,0.00,,,0.00,weatherlink.com 1.10,2013-04-19 23:17:00,
2013-04-19 15:32:00,38.9,18.0,30.28,North,5,4.0,7.0,43,0.00,,,0.00,weatherlink.com 1.10,2013-04-19 23:32:00,
2013-04-19 15:47:00,39.5,19.0,30.28,NE,46,5.0,7.0,43,0.00,,,0.00,weatherlink.com 1.10,2013-04-19 23:47:00,
2013-04-19 16:02:00,39.7,19.0,30.28,NNE,29,1.0,7.0,44,0.00,,,0.00,weatherlink.com 1.10,2013-04-20 00:02:00,
2013-04-19 16:17:00,40.0,20.0,30.28,North,5,6.0,6.0,44,0.00,,,0.00,weatherlink.com 1.10,2013-04-20 00:17:00,
2013-04-19 16:32:00,39.7,19.0,30.28,North,360,5.0,7.0,44,0.00,,,0.00,weatherlink.com 1.10,2013-04-20 00:32:00,
2013-04-19 16:47:00,39.9,18.0,30.28,North,355,1.0,6.0,42,0.00,,,0.00,weatherlink.com 1.10,2013-04-20 00:47:00,
2013-04-19 17:03:00,40.4,19.0,30.28,North,9,2.0,5.0,42,0.00,,,0.00,weatherlink.com 1.10,2013-04-20 01:03:00,
2013-04-19 17:18:00,40.3,19.0,30.29,North,355,4.0,7.0,43,0.00,,,0.00,weatherlink.com 1.10,2013-04-20 01:18:00,
2013-04-19 17:33:00,39.9,19.0,30.29,North,11,3.0,7.0,43,0.00,,,0.00,weatherlink.com 1.10,2013-04-20 01:33:00,
2013-04-19 17:48:00,40.1,19.0,30.28,North,360,5.0,6.0,42,0.00,,,0.00,weatherlink.com 1.10,2013-04-20 01:48:00,
2013-04-19 18:18:00,39.8,18.0,30.28,North,5,5.0,7.0,42,0.00,,,0.00,weatherlink.com 1.10,2013-04-20 02:18:00,
2013-04-19 18:33:00,39.6,19.0,30.28,NNE,12,1.0,6.0,44,0.00,,,0.00,weatherlink.com 1.10,2013-04-20 02:33:00,
2013-04-19 18:48:00,40.0,18.0,30.28,NNE,13,3.0,6.0,42,0.00,,,0.00,weatherlink.com 1.10,2013-04-20 02:48:00,
2013-04-19 19:03:00,39.8,19.0,30.29,NNE,31,0.0,7.0,44,0.00,,,0.00,weatherlink.com 1.10,2013-04-20 03:03:00,
2013-04-19 19:18:00,39.9,19.0,30.29,North,355,0.0,6.0,44,0.00,,,0.00,weatherlink.com 1.10,2013-04-20 03:18:00,
2013-04-19 19:33:00,40.0,20.0,30.29,North,360,4.0,5.0,45,0.00,,,0.00,weatherlink.com 1.10,2013-04-20 03:33:00,
2013-04-19 19:48:00,39.1,19.0,30.29,NW,325,4.0,7.0,45,0.00,,,0.00,weatherlink.com 1.10,2013-04-20 03:48:00,
2013-04-19 20:03:00,38.7,19.0,30.29,North,349,4.0,5.0,45,0.00,,,0.00,weatherlink.com 1.10,2013-04-20 04:03:00,
2013-04-19 20:18:00,38.3,19.0,30.29,North,349,3.0,6.0,46,0.00,,,0.00,weatherlink.com 1.10,2013-04-20 04:18:00,
2013-04-19 20:33:00,37.5,19.0,30.29,North,349,4.0,5.0,47,0.00,,,0.00,weatherlink.com 1.10,2013-04-20 04:33:00,
2013-04-19 20:48:00,36.8,19.0,30.30,North,349,4.0,4.0,48,0.00,,,0.00,weatherlink.com 1.10,2013-04-20 04:48:00,
2013-04-19 21:03:00,35.7,19.0,30.30,North,349,3.0,4.0,50,0.00,,,0.00,weatherlink.com 1.10,2013-04-20 05:03:00,
2013-04-19 21:18:00,34.0,18.0,30.30,North,349,0.0,3.0,52,0.00,,,0.00,weatherlink.com 1.10,2013-04-20 05:18:00,
2013-04-19 21:33:00,32.3,18.0,30.31,North,349,2.0,4.0,55,0.00,,,0.00,weatherlink.com 1.10,2013-04-20 05:33:00,
2013-04-19 22:03:00,31.0,18.0,30.32,North,349,2.0,4.0,58,0.00,,,0.00,weatherlink.com 1.10,2013-04-20 06:03:00,
2013-04-19 22:18:00,30.5,18.0,30.32,North,349,3.0,4.0,59,0.00,,,0.00,weatherlink.com 1.10,2013-04-20 06:18:00,
2013-04-19 22:33:00,30.1,18.0,30.32,North,349,2.0,3.0,60,0.00,,,0.00,weatherlink.com 1.10,2013-04-20 06:33:00,
2013-04-19 22:48:00,29.9,17.0,30.32,North,349,2.0,3.0,60,0.00,,,0.00,weatherlink.com 1.10,2013-04-20 06:48:00,
2013-04-19 23:03:00,29.5,17.0,30.32,North,349,2.0,4.0,60,0.00,,,0.00,weatherlink.com 1.10,2013-04-20 07:03:00,
2013-04-19 23:18:00,30.1,17.0,30.32,North,349,1.0,2.0,58,0.00,,,0.00,weatherlink.com 1.10,2013-04-20 07:18:00,
2013-04-19 23:33:00,29.8,18.0,30.33,North,349,2.0,3.0,61,0.00,,,0.00,weatherlink.com 1.10,2013-04-20 07:33:00,
2013-04-19 23:48:00,30.0,16.0,30.33,North,349,1.0,4.0,56,0.00,,,0.00,weatherlink.com 1.10,2013-04-20 07:48:00,